EW9081 Weather Reports


Display with metric or nautical units.
time (UTC)temp
F
wind
direction
speed
MPH
gust
MPH
rain 1hr
in
rain 24hr
in
rain mn
in
humidity
%
barometer
mb
20260504014219 85 257 2.0 7.0 0.00 0.00 0.00 41 1006.9
20260504013719 85 277 3.0 7.0 0.00 0.00 0.00 39 1006.9
20260504013222 85 205 3.0 7.0 0.00 0.00 0.00 39 1006.9
20260504013218 85 232 3.0 7.0 0.00 0.00 0.00 37 1006.8
20260504012217 86 228 2.0 7.0 0.00 0.00 0.00 38 1006.9
20260504011714 87 251 1.0 4.0 0.00 0.00 0.00 37 1006.9
20260504011214 87 250 1.0 4.0 0.00 0.00 0.00 36 1006.9
20260504010711 88 255 1.0 4.0 0.00 0.00 0.00 36 1007.0
20260504010212 89 255 1.0 4.0 0.00 0.00 0.00 38 1007.0
20260504005710 89 272 0.0 4.0 0.00 0.00 0.00 34 1007.1
20260504005211 90 238 0.0 2.0 0.00 0.00 0.00 37 1007.1
20260504004710 89 178 0.0 2.0 0.00 0.00 0.00 39 1007.1
20260504004211 89 178 1.0 3.0 0.00 0.00 0.00 34 1007.1
20260504003711 88 178 1.0 3.0 0.00 0.00 0.00 27 1007.1
20260504003210 88 176 1.0 5.0 0.00 0.00 0.00 32 1007.1
20260504002708 89 178 1.0 5.0 0.00 0.00 0.00 28 1007.1
20260504002206 89 167 0.0 3.0 0.00 0.00 0.00 32 1007.2
20260504001708 89 167 1.0 5.0 0.00 0.00 0.00 37 1007.1
20260504001202 89 166 1.0 5.0 0.00 0.00 0.00 37 1007.2
20260504000704 89 175 0.0 2.0 0.00 0.00 0.00 29 1007.1
20260504000204 89 182 1.0 4.0 0.00 0.00 0.00 34 1007.1
20260503235702 89 184 1.0 4.0 0.00 0.00 0.00 36 1007.1
20260503235202 89 13 1.0 3.0 0.00 0.00 0.00 34 1007.2
20260503234706 88 355 1.0 2.0 0.00 0.00 0.00 40 1007.2
20260503234702 89 180 1.0 2.0 0.00 0.00 0.00 36 1007.2
20260503233702 88 346 1.0 3.0 0.00 0.00 0.00 36 1007.3
20260503233203 88 329 1.0 3.0 0.00 0.00 0.00 34 1007.3
20260503232701 89 44 0.0 3.0 0.00 0.00 0.00 30 1007.4
20260503232208 88 21 1.0 3.0 0.00 0.00 0.00 32 1007.7
20260503232200 88 331 1.0 2.0 0.00 0.00 0.00 31 1007.5
20260503231700 88 323 1.0 3.0 0.00 0.00 0.00 40 1007.5
20260503231200 88 318 1.0 3.0 0.00 0.00 0.00 33 1007.5
20260503230819 88 22 1.0 3.0 0.00 0.00 0.00 41 1007.8
20260503230701 88 26 1.0 3.0 0.00 0.00 0.00 33 1007.6
20260503230426 88 313 1.0 2.0 0.00 0.00 0.00 33 1007.9
20260503225313 88 334 1.0 3.0 0.00 0.00 0.00 35 1007.9
20260503224813 88 12 1.0 3.0 0.00 0.00 0.00 39 1008.1
20260503223658 88 9 1.0 3.0 0.00 0.00 0.00 38 1008.1
20260503223159 87 162 1.0 4.0 0.00 0.00 0.00 35 1008.1
20260503222658 87 123 1.0 4.0 0.00 0.00 0.00 34 1008.2
20260503222157 87 69 1.0 3.0 0.00 0.00 0.00 31 1008.3
20260503221658 87 355 1.0 3.0 0.00 0.00 0.00 36 1008.4
20260503221159 87 178 1.0 3.0 0.00 0.00 0.00 35 1008.5
20260503220703 86 277 1.0 2.0 0.00 0.00 0.00 33 1008.6
20260503220658 86 0 1.0 2.0 0.00 0.00 0.00 38 1008.5
20260503215658 86 277 1.0 2.0 0.00 0.00 0.00 38 1008.8
20260503215203 86 177 1.0 2.0 0.00 0.00 0.00 37 1008.9
20260503215157 86 276 1.0 2.0 0.00 0.00 0.00 34 1008.8
20260503214155 86 165 1.0 4.0 0.00 0.00 0.00 38 1009.0
20260503213657 86 346 1.0 4.0 0.00 0.00 0.00 36 1009.0
20260503213156 86 20 1.0 3.0 0.00 0.00 0.00 42 1009.1
20260503212701 85 178 1.0 5.0 0.00 0.00 0.00 40 1009.2
20260503212656 85 113 1.0 5.0 0.00 0.00 0.00 42 1009.2
20260503212308 85 336 2.0 5.0 0.00 0.00 0.00 40 1009.3
20260503211156 85 351 1.0 5.0 0.00 0.00 0.00 39 1009.3
20260503210656 85 22 1.0 3.0 0.00 0.00 0.00 43 1009.3
20260503210156 85 292 1.0 7.0 0.00 0.00 0.00 45 1009.4
20260503205655 84 9 1.0 7.0 0.00 0.00 0.00 42 1009.5
20260503205200 83 340 1.0 4.0 0.00 0.00 0.00 49 1009.6
20260503205155 84 19 1.0 4.0 0.00 0.00 0.00 47 1009.5
20260503204655 83 248 1.0 4.0 0.00 0.00 0.00 44 1009.5
20260503203700 82 181 1.0 5.0 0.00 0.00 0.00 47 1009.7
20260503203654 83 34 1.0 3.0 0.00 0.00 0.00 47 1009.6
20260503203154 82 190 1.0 2.0 0.00 0.00 0.00 45 1009.7
20260503202154 82 192 1.0 5.0 0.00 0.00 0.00 48 1009.8
20260503201658 81 168 1.0 5.0 0.00 0.00 0.00 53 1010.0
20260503201654 81 208 1.0 5.0 0.00 0.00 0.00 47 1009.9
20260503200653 80 171 1.0 4.0 0.00 0.00 0.00 53 1010.0
20260503200152 80 178 2.0 5.0 0.00 0.00 0.00 51 1010.0
20260503195653 80 285 2.0 5.0 0.00 0.00 0.00 48 1010.1
20260503195152 80 336 1.0 4.0 0.00 0.00 0.00 52 1010.2
20260503194652 80 343 0.0 3.0 0.00 0.00 0.00 56 1010.3
20260503194151 80 284 1.0 3.0 0.00 0.00 0.00 51 1010.4
20260503193652 79 29 1.0 5.0 0.00 0.00 0.00 53 1010.4
20260503193152 79 25 1.0 5.0 0.00 0.00 0.00 56 1010.4
20260503192652 78 21 1.0 5.0 0.00 0.00 0.00 52 1010.4
20260503192158 78 215 1.0 4.0 0.00 0.00 0.00 57 1010.5
20260503192153 78 115 1.0 5.0 0.00 0.00 0.00 54 1010.5
20260503191158 77 180 2.0 5.0 0.00 0.00 0.00 54 1010.7
20260503191153 77 178 2.0 4.0 0.00 0.00 0.00 52 1010.6
20260503190653 77 165 2.0 5.0 0.00 0.00 0.00 54 1010.6
20260503185653 77 184 1.0 5.0 0.00 0.00 0.00 56 1010.8
20260503185153 77 54 1.0 5.0 0.00 0.00 0.00 52 1010.9
20260503184652 77 67 1.0 5.0 0.00 0.00 0.00 53 1010.9
20260503184152 76 172 1.0 3.0 0.00 0.00 0.00 55 1010.9
20260503183649 76 338 1.0 3.0 0.00 0.00 0.00 59 1010.9
20260503183151 76 183 1.0 3.0 0.00 0.00 0.00 56 1011.0
20260503182650 76 169 1.0 3.0 0.00 0.00 0.00 58 1011.0
20260503182155 74 92 1.0 5.0 0.00 0.00 0.00 65 1011.1
20260503182151 75 140 1.0 5.0 0.00 0.00 0.00 62 1011.0
20260503181150 74 74 1.0 5.0 0.00 0.00 0.00 61 1011.1
20260503180650 74 71 2.0 5.0 0.00 0.00 0.00 60 1011.1
20260503180150 73 145 2.0 5.0 0.00 0.00 0.00 60 1011.2
20260503175650 73 161 2.0 6.0 0.00 0.00 0.00 65 1011.2
20260503175150 73 176 2.0 6.0 0.00 0.00 0.00 61 1011.2
20260503174649 72 86 1.0 5.0 0.00 0.00 0.00 60 1011.2
20260503174156 72 173 1.0 4.0 0.00 0.00 0.00 62 1011.3
20260503174149 72 182 1.0 3.0 0.00 0.00 0.00 63 1011.2
20260503173650 72 146 1.0 3.0 0.00 0.00 0.00 60 1011.3
20260503172655 71 70 1.0 4.0 0.00 0.00 0.00 63 1011.3
20260503172650 71 58 1.0 4.0 0.00 0.00 0.00 63 1011.3
20260503171654 71 171 0.0 2.0 0.00 0.00 0.00 63 1011.3
20260503171649 71 175 1.0 4.0 0.00 0.00 0.00 64 1011.3
20260503170651 71 158 0.0 2.0 0.00 0.00 0.00 66 1011.3
20260503170155 70 103 0.0 3.0 0.00 0.00 0.00 68 1011.4
20260503170149 71 157 0.0 3.0 0.00 0.00 0.00 64 1011.4
20260503160148 65 166 0.0 0.0 0.00 0.00 0.00 83 1011.5
20260503160144 66 166 0.0 0.0 0.00 0.00 0.00 81 1011.5
20260503150645 57 167 0.0 0.0 0.00 0.00 0.00 95 1011.7
20260503150641 58 167 0.0 0.0 0.00 0.00 0.00 93 1011.7
20260503140135 49 167 0.0 0.0 0.00 0.00 0.00 95 1011.7
20260503130633 48 167 0.0 0.0 0.00 0.00 0.00 94 1011.4
20260503130133 48 167 0.0 0.0 0.00 0.00 0.00 94 1011.4
20260503120129 50 167 0.0 0.0 0.00 0.00 0.00 92 1011.5
20260503110123 52 177 0.0 0.0 0.00 0.00 0.00 91 1011.6
20260503100121 51 207 0.0 0.0 0.00 0.00 0.00 91 1011.9
20260503090120 52 178 0.0 0.0 0.00 0.00 0.00 92 1012.1
20260503081618 53 178 0.0 0.0 0.00 0.00 0.00 91 1012.3
20260503081119 53 178 0.0 0.0 0.00 0.00 0.00 91 1012.3
20260503080619 53 173 0.0 0.0 0.00 0.00 0.00 91 1012.3
20260503080124 53 173 0.0 0.0 0.00 0.00 0.00 90 1012.3
20260503080118 53 173 0.0 0.0 0.00 0.00 0.00 90 1012.3
20260503072620 54 171 0.0 0.0 0.00 0.00 0.00 86 1012.5
20260503072120 54 171 0.0 1.0 0.00 0.00 0.00 87 1012.5
20260503071618 55 171 0.0 2.0 0.00 0.00 0.00 87 1012.5
20260503071118 55 171 0.0 2.0 0.00 0.00 0.00 87 1012.5
20260503070619 55 171 0.0 2.0 0.00 0.00 0.00 88 1012.5
20260503070117 55 171 0.0 3.0 0.00 0.00 0.00 88 1012.5
20260503060114 57 204 0.0 2.0 0.00 0.00 0.00 86 1012.3
20260503054613 57 204 0.0 2.0 0.00 0.00 0.00 84 1012.3
20260503054116 58 204 0.0 2.0 0.00 0.00 0.00 83 1012.4
20260503054111 58 204 0.0 0.0 0.00 0.00 0.00 83 1012.3
20260503053110 58 204 0.0 2.0 0.00 0.00 0.00 82 1012.4
20260503052613 59 204 0.0 2.0 0.00 0.00 0.00 82 1012.2
20260503052609 59 204 0.0 2.0 0.00 0.00 0.00 82 1012.3
20260503052220 59 204 0.0 2.0 0.00 0.00 0.00 83 1012.4
20260503051107 59 204 0.0 2.0 0.00 0.00 0.00 82 1012.3
20260503050607 59 203 0.0 2.0 0.00 0.00 0.00 82 1012.4
20260503050105 60 203 0.0 2.0 0.00 0.00 0.00 82 1012.4
20260503045605 60 202 0.0 0.0 0.00 0.00 0.00 81 1012.3
20260503045109 60 202 0.0 2.0 0.00 0.00 0.00 82 1012.3
20260503045104 60 202 0.0 2.0 0.00 0.00 0.00 81 1012.3
20260503044104 60 214 0.0 0.0 0.00 0.00 0.00 82 1012.3
20260503043602 60 237 0.0 0.0 0.00 0.00 0.00 82 1012.3
20260503043106 61 237 0.0 0.0 0.00 0.00 0.00 82 1012.3
20260503043101 61 237 0.0 0.0 0.00 0.00 0.00 82 1012.4
20260503042059 61 238 0.0 0.0 0.00 0.00 0.00 81 1012.3
20260503041558 61 238 0.0 0.0 0.00 0.00 0.00 81 1012.1
20260503041105 62 285 0.0 0.0 0.00 0.00 0.00 78 1012.0
20260503041059 61 238 0.0 0.0 0.00 0.00 0.00 80 1012.2
20260503040557 61 238 0.0 0.0 0.00 0.00 0.00 80 1012.1
20260503040057 61 264 0.0 0.0 0.00 0.00 0.00 79 1012.1
20260503035056 62 285 0.0 0.0 0.00 0.00 0.00 78 1011.9
20260503034558 62 286 0.0 0.0 0.00 0.00 0.00 78 1011.8
20260503034101 62 290 0.0 1.0 0.00 0.00 0.00 78 1011.7
20260503034057 62 288 0.0 0.0 0.00 0.00 0.00 78 1011.7
20260503033057 62 290 1.0 3.0 0.00 0.00 0.00 78 1011.7
20260503032556 63 297 1.0 3.0 0.00 0.00 0.00 77 1011.6
20260503032056 62 279 0.0 2.0 0.00 0.00 0.00 77 1011.6
20260503031556 62 278 0.0 2.0 0.00 0.00 0.00 78 1011.5
20260503031057 62 313 1.0 3.0 0.00 0.00 0.00 78 1011.5
20260503030558 62 336 2.0 3.0 0.00 0.00 0.00 78 1011.4
20260503030056 63 302 2.0 3.0 0.00 0.00 0.00 77 1011.5
20260503025556 63 288 1.0 3.0 0.00 0.00 0.00 77 1011.7
20260503025056 64 173 0.0 2.0 0.00 0.00 0.00 76 1011.9
20260503024556 64 169 0.0 0.0 0.00 0.00 0.00 75 1011.8
20260503024057 64 169 0.0 3.0 0.00 0.00 0.00 73 1011.9
20260503023558 65 169 0.0 3.0 0.00 0.00 0.00 72 1012.0
20260503023056 65 169 1.0 5.0 0.00 0.00 0.00 72 1012.0
20260503022557 65 167 2.0 8.0 0.00 0.00 0.00 72 1012.0
20260503022058 65 197 2.0 8.0 0.00 0.00 0.00 72 1012.3
20260503021556 65 200 2.0 8.0 0.00 0.00 0.00 71 1012.3
20260503021055 66 167 2.0 8.0 0.00 0.00 0.00 70 1012.3
20260503020555 66 148 2.0 7.0 0.00 0.00 0.00 70 1012.4
20260503020055 66 172 2.0 4.0 0.00 0.00 0.00 70 1012.2
20260503015554 67 134 2.0 5.0 0.00 0.00 0.00 70 1012.1
20260503015054 67 167 1.0 5.0 0.00 0.00 0.00 71 1012.0